User: anonymous
Location: Melbourne
(37.8170°S, 144.9670°E)
Time: 19:26:36
(UTC+10:00)
Language:

ADEOS Rocket - Orbit

View from above orbital plane
View from above orbital plane
View from above satellite
View from above satellite

Ground track
Ground track

The orbit data is extracted from the following two-line orbital elements,

1 24279U 96046C   14108.19627293  .00000002  00000-0  49381-4 0  6473
2 24279 098.7514 183.2312 0299868 357.9375 052.2854 13.46974643868613
Epoch (UTC): 18 April 2014 04:42:37
Eccentricity: 0.0299868
inclination: 98.7514°
perigee height: 859 km
apogee height: 1307 km
right ascension of ascending node: 183.2312°
argument of perigee: 357.9375°
revolutions per day: 13.46974643
mean anomaly at epoch: 52.2854°
orbit number at epoch: 86861

The dashed part of the orbit path shows where the satellite is in the earth's shadow,  

DLR